GFSMA_925_rhum_021.txt.gz
RH
58 53 52 52 48 42 38 39 40 40 40 39 38 36 34 31 29 38 42 36 40 45 47 49 48 49 54 60 60 49 47 65 81 68 54 50 42 37 38 61 68 71 77
58 57 52 44 40 39 40 42 41 41 40 38 38 34 31 40 31 24 36 41 23 28 39 50 53 52 52 68 77 84 68 48 52 73 66 61 55 40 36 35 52 71 75
60 50 45 43 42 42 42 42 40 39 44 44 45 44 40 41 39 27 31 29 42 44 45 44 46 47 48 51 68 82 94 96 70 61 70 72 62 60 50 36 36 52 71
51 47 44 44 45 45 43 40 40 49 49 50 48 44 45 42 47 57 66 59 56 54 50 46 46 46 44 42 45 55 75 85 98 93 81 70 73 63 62 52 37 34 47
44 43 43 44 43 41 39 38 45 44 51 51 47 44 47 38 45 58 68 66 60 54 54 49 43 40 36 32 34 54 62 69 83 97 98 91 82 80 70 65 56 42 34
48 44 41 40 41 40 41 49 53 59 61 65 52 48 50 40 58 64 62 63 64 68 64 63 58 52 41 29 27 40 71 74 74 86 95 100 97 88 83 80 70 59 44
44 42 42 44 49 58 57 52 63 62 50 66 42 41 39 55 67 60 62 59 62 62 66 67 63 59 56 60 46 36 81 84 83 84 88 94 98 95 87 83 82 72 60
45 45 46 54 59 61 53 47 48 57 60 72 58 44 35 34 58 61 60 62 61 66 65 67 72 67 65 61 64 56 72 79 90 87 88 91 94 96 96 86 82 84 72
48 49 49 56 53 52 70 70 74 69 53 61 69 59 48 42 52 45 51 54 67 64 68 69 70 72 72 74 70 72 85 60 89 91 88 88 90 94 94 96 95 84 86
48 50 54 61 60 57 54 64 62 61 57 50 53 63 65 64 55 52 46 55 59 63 68 72 70 77 82 83 84 73 56 53 64 94 90 87 84 88 94 98 96 93 91
47 51 53 58 58 49 36 34 49 60 60 54 51 52 55 59 58 62 58 47 50 50 62 57 64 64 77 86 78 68 52 51 71 81 87 82 88 86 96 100 100 97 88
49 52 57 65 57 40 44 45 36 37 57 59 55 55 52 53 51 54 55 50 49 49 46 55 63 59 60 72 70 66 59 46 75 83 79 80 88 92 99 97 100 100 89
66 73 68 74 52 52 57 47 60 65 61 57 63 58 67 64 64 61 55 51 59 49 52 52 56 58 52 52 61 58 71 61 60 90 80 73 53 73 97 100 89 90 100
66 62 69 74 51 65 57 62 75 74 73 66 66 62 59 62 76 74 67 67 65 54 47 47 49 53 55 55 56 56 61 54 48 49 64 83 67 47 74 99 76 82 87
32 49 71 66 63 66 64 71 73 74 71 60 58 66 64 64 72 70 72 72 70 80 60 48 48 46 50 51 55 59 61 68 46 42 44 54 73 56 50 76 93 82 83
33 43 71 77 77 72 73 75 73 69 61 57 63 68 64 67 71 72 72 74 71 68 66 49 44 45 49 51 54 59 56 65 62 47 45 54 67 53 50 56 76 89 81
47 59 78 82 81 72 74 82 72 62 52 64 69 70 68 69 69 68 67 63 60 58 56 52 50 49 54 58 58 59 54 56 60 59 47 65 61 57 56 57 77 95 88
48 68 75 82 83 74 87 73 60 60 63 67 67 69 71 70 70 69 68 65 64 62 61 56 52 53 60 60 61 64 61 59 52 56 54 43 54 66 74 64 71 95 93
69 76 83 86 98 97 64 55 55 56 68 71 74 75 75 78 72 67 66 65 65 68 66 64 63 59 56 55 74 65 62 62 58 61 52 43 43 66 93 84 78 90 96
82 89 93 95 88 75 69 64 59 73 78 79 84 83 81 76 71 68 72 75 72 83 79 76 69 62 62 60 64 70 65 56 55 54 53 50 41 68 94 90 85 90 97
78 85 94 88 86 86 72 79 83 82 80 76 72 67 67 75 84 83 79 77 80 80 76 78 66 56 54 55 58 60 71 73 79 62 57 53 55 68 89 88 98 90 97
82 81 88 80 78 80 66 60 63 75 72 66 65 65 68 73 73 84 86 88 88 91 91 76 68 76 71 66 68 64 87 80 62 61 61 55 63 59 72 87 97 99 90
77 93 88 74 70 76 58 57 62 76 72 71 71 72 73 72 81 79 78 85 93 88 87 89 86 71 65 61 69 80 76 84 76 86 68 60 68 66 68 71 77 95 99
82 90 79 73 69 63 57 57 55 74 74 73 75 78 75 77 78 84 94 85 81 70 78 86 89 86 80 81 78 88 91 85 76 73 72 71 63 73 74 73 63 85 99
80 72 77 72 66 63 60 60 68 84 83 82 82 79 80 79 88 94 86 87 76 70 80 81 90 92 94 96 96 86 86 80 70 56 55 75 74 75 76 76 77 64 96
71 79 76 69 63 64 64 61 82 87 89 84 81 74 83 90 94 86 79 85 84 81 77 81 80 84 92 93 96 90 74 88 72 86 63 78 67 67 62 79 80 73 76

GFSMA_925_rhum_027.txt.gz
RH
72 64 58 52 52 49 48 49 47 48 45 42 44 42 44 43 41 39 39 38 39 39 39 45 74 77 79 79 78 77 69 68 83 92 85 84 83 69 59 43 37 49 75
66 69 64 64 55 54 57 54 53 48 46 43 41 41 42 41 38 39 39 40 43 44 42 44 44 62 73 73 72 73 76 76 79 82 95 96 86 83 79 68 55 40 37
68 71 66 66 63 63 55 52 49 46 44 41 41 40 40 36 35 36 39 35 40 52 51 47 47 48 64 68 69 69 68 69 75 77 80 86 95 92 85 82 77 63 43
65 67 68 65 53 56 50 49 46 47 47 46 44 43 40 32 29 34 30 25 38 46 50 54 47 47 58 59 61 68 68 68 69 73 79 82 84 92 99 92 84 83 68
58 61 62 63 58 50 51 53 54 54 51 49 39 33 35 27 28 28 31 30 42 44 44 43 46 47 52 53 56 61 64 75 74 75 78 81 84 86 90 96 95 93 88
63 55 58 61 59 53 53 59 61 53 46 39 34 37 38 31 29 30 38 39 39 40 43 48 46 43 43 50 55 56 63 71 73 77 76 75 78 82 89 90 95 95 98
57 55 50 54 56 54 52 56 54 46 39 36 36 37 36 31 26 25 27 38 38 37 38 42 44 44 44 45 48 52 63 64 77 80 79 78 76 77 80 83 85 89 98
54 49 59 54 51 48 43 39 46 48 42 39 38 36 38 31 27 30 31 32 33 33 38 38 43 43 46 45 46 53 67 83 82 78 76 78 76 74 74 76 78 82 88
50 50 51 49 47 45 41 43 46 50 45 42 40 37 40 38 34 30 31 30 32 38 38 36 37 39 43 42 44 48 58 55 68 73 71 76 71 71 72 73 76 77 79
49 43 42 47 50 50 50 48 43 50 50 45 42 39 37 36 37 38 31 32 32 30 29 30 32 34 36 36 39 40 56 62 55 64 72 75 73 73 72 73 74 77 74
40 41 43 46 53 52 50 52 53 54 54 51 50 41 35 34 33 36 46 36 32 29 28 28 30 33 33 34 36 35 39 44 56 64 64 71 75 80 76 73 76 77 76
34 32 36 42 42 44 49 50 52 56 60 60 50 40 38 40 40 43 43 38 36 31 29 30 31 31 32 33 33 34 36 45 55 58 58 57 70 70 79 79 74 73 77
29 31 38 38 40 43 47 50 60 65 58 58 54 48 49 48 48 43 41 40 40 34 35 34 34 33 32 33 33 34 41 40 40 44 53 60 69 70 72 75 75 70 73
32 35 37 39 42 48 48 57 63 61 62 66 73 66 59 53 50 50 45 44 52 42 39 38 38 38 34 34 33 34 37 39 42 44 54 68 73 72 70 78 75 71 72
33 32 40 40 40 43 46 58 62 63 62 59 71 71 60 55 58 57 52 43 44 70 55 41 39 35 33 36 37 40 43 43 44 46 45 47 64 69 68 78 84 74 69
39 41 42 43 46 47 45 45 53 55 56 65 65 61 53 58 64 58 48 43 37 41 51 37 34 34 38 42 43 44 47 50 53 52 54 50 47 56 71 86 83 60 48
42 43 42 44 45 44 44 53 74 76 70 68 54 53 62 61 58 55 48 38 39 38 40 38 37 41 46 49 50 51 49 51 48 46 45 50 47 48 58 51 45 41 44
45 45 42 45 44 43 52 69 65 78 80 68 61 60 58 56 54 43 40 39 40 39 40 41 44 50 54 55 53 51 51 49 50 59 55 56 59 66 58 52 47 42 43
44 45 44 45 45 48 50 62 68 67 63 64 64 63 57 51 46 44 46 48 45 43 46 55 60 58 53 50 53 53 51 46 52 53 61 65 65 60 57 50 42 39 44
46 45 46 46 49 54 54 58 59 65 69 64 61 53 47 46 46 56 55 55 52 54 57 60 57 60 56 59 59 56 63 58 51 43 42 51 80 92 62 46 40 36 40
46 47 45 45 55 58 60 68 64 60 59 54 49 44 42 46 50 61 64 61 64 65 65 65 66 64 69 58 54 53 60 52 50 50 57 66 77 81 58 53 52 64 83
43 45 46 48 60 59 62 61 56 62 54 46 44 44 45 46 47 54 63 76 78 70 77 83 69 58 54 58 81 82 68 61 53 49 80 91 75 96 62 57 83 95 73
46 48 48 53 63 65 72 62 58 62 55 50 50 50 50 46 51 56 62 66 71 63 66 71 78 77 85 66 64 72 64 72 66 60 62 74 70 84 68 53 61 67 58
46 47 48 57 61 67 68 64 58 65 55 56 57 56 53 53 56 76 75 66 58 52 49 54 62 67 66 64 64 68 69 60 62 59 50 64 57 59 63 61 62 62 63
48 50 49 58 65 69 66 64 60 64 63 63 62 56 59 56 61 71 75 70 64 56 53 54 61 71 77 75 73 80 89 73 76 58 60 90 68 57 64 56 58 56 64
49 50 50 55 61 67 72 70 65 73 74 70 63 58 58 63 70 83 80 76 73 66 59 62 70 74 68 68 76 90 91 94 81 64 59 92 62 57 57 60 65 62 68

GFSMA_925_rhum_033.txt.gz
RH
68 64 59 54 54 55 55 55 49 43 44 45 46 46 45 44 41 36 29 31 33 37 63 75 74 69 69 67 67 66 70 74 77 80 80 84 89 93 95 98 99 95 85
54 62 61 55 54 59 52 46 46 48 50 50 50 50 46 44 39 36 30 30 30 34 50 56 63 62 65 62 64 65 67 69 73 74 77 80 84 87 91 92 97 99 99
67 64 58 62 62 52 49 49 52 53 52 53 51 47 41 35 34 35 34 30 30 36 50 55 60 56 60 58 59 61 60 62 66 67 75 82 78 80 82 86 89 94 97
68 64 64 62 52 52 53 56 58 58 56 53 44 38 38 40 38 33 35 34 44 53 61 55 53 56 53 57 58 57 56 59 62 82 88 86 82 79 78 80 83 86 87
62 58 56 51 53 55 56 56 54 52 54 47 46 41 41 38 34 35 34 34 32 38 49 58 45 44 45 57 57 56 60 58 70 74 79 82 73 70 73 76 76 78 81
64 58 53 59 58 58 54 50 42 49 48 50 46 45 42 38 37 38 34 32 34 37 40 37 38 37 37 39 48 51 54 64 68 71 67 68 73 71 68 69 70 72 75
56 60 58 55 54 51 46 49 47 47 50 51 47 44 45 44 40 41 37 33 33 34 32 31 32 34 39 40 42 49 47 54 61 60 59 61 64 66 66 70 72 69 70
55 53 54 53 50 48 50 51 52 51 51 50 48 54 70 53 47 42 37 34 37 35 34 32 32 35 38 37 39 41 38 46 52 50 51 51 56 59 59 60 74 77 73
53 49 45 44 48 52 54 52 54 56 54 52 53 55 75 76 58 41 38 40 36 35 33 35 34 33 33 35 35 36 37 39 47 55 53 52 53 54 54 56 60 76 82
49 43 45 49 55 52 49 47 50 51 52 54 56 56 54 56 67 70 43 41 40 37 39 38 37 36 36 37 39 38 40 46 45 47 57 54 53 53 53 52 52 65 75
46 46 42 39 40 39 39 42 44 49 60 60 62 61 59 58 56 57 74 54 48 47 45 42 40 37 33 38 40 38 37 40 42 48 48 48 49 50 51 50 52 51 67
33 32 33 34 36 34 40 43 47 54 64 64 60 64 68 68 61 57 69 66 62 55 52 51 47 45 42 42 37 36 38 47 43 55 54 54 54 54 54 53 52 53 61
33 33 34 35 37 40 41 42 45 50 58 58 64 66 67 69 72 67 77 97 72 64 62 55 51 45 44 42 38 43 41 40 42 49 57 58 59 58 56 54 52 52 65
33 33 34 37 40 42 44 45 46 48 62 70 71 71 70 68 75 74 95 95 94 79 72 66 49 45 42 44 43 40 41 43 46 50 64 62 60 60 59 56 56 58 56
34 36 37 41 42 43 43 46 46 58 61 59 67 71 74 74 88 98 93 90 72 98 84 59 52 47 44 46 46 47 51 48 54 60 50 57 55 55 56 59 61 62 66
35 36 40 43 43 42 44 46 60 55 52 60 64 77 84 91 89 92 97 62 60 65 84 56 53 50 52 54 55 57 50 57 53 51 54 55 57 58 57 61 68 66 66
37 40 42 44 44 42 44 51 52 53 58 60 70 74 75 85 88 76 52 49 53 54 62 62 60 60 59 59 54 57 56 57 60 60 62 60 60 57 55 59 65 71 70
36 39 43 46 44 44 47 49 53 60 60 69 71 71 65 62 54 49 49 52 53 50 59 69 67 66 65 60 57 59 62 61 64 66 66 60 60 57 55 56 62 60 65
38 42 47 47 45 45 50 52 56 61 64 68 67 62 61 57 47 48 49 48 47 51 59 66 72 71 69 64 65 66 62 68 64 73 67 64 62 58 58 57 67 66 73
40 46 47 47 45 46 53 56 59 60 65 62 59 54 50 47 46 46 47 48 54 62 67 72 77 74 74 76 75 68 86 83 75 65 63 56 61 60 53 53 58 58 74
43 46 47 46 44 50 53 58 59 60 53 56 56 52 49 49 49 48 51 60 68 69 72 77 81 80 82 82 85 94 80 72 69 69 66 62 71 60 52 54 62 79 94
42 45 44 43 47 51 55 59 60 58 54 53 48 56 53 53 52 55 62 66 70 66 72 80 84 84 82 96 80 73 76 79 77 65 75 80 73 73 63 61 72 80 99
41 44 44 45 50 53 59 62 64 62 55 51 56 59 58 59 57 57 57 56 56 42 68 70 69 76 72 68 70 80 84 90 91 83 86 92 82 79 66 73 66 67 73
60 58 48 49 51 58 64 67 70 63 58 57 61 64 64 61 60 60 59 61 60 31 52 76 77 69 74 81 84 86 91 95 93 83 90 94 86 78 66 60 66 70 72
52 52 52 52 54 57 64 67 70 67 63 62 65 68 69 64 62 63 64 72 47 37 60 77 68 71 75 90 88 97 95 97 91 87 82 96 81 77 72 64 69 64 66
61 58 60 56 56 60 65 70 74 71 68 68 64 76 72 67 65 72 78 70 52 56 74 71 72 64 71 80 81 78 86 98 96 90 79 96 91 85 81 65 66 61 63

GFSMA_925_rhum_036.txt.gz
RH
67 59 60 55 57 56 54 48 45 45 44 47 50 50 46 43 39 35 32 32 32 35 63 78 73 71 69 69 68 69 68 72 72 73 78 82 82 83 85 88 92 94 100
65 62 59 58 57 56 52 48 46 48 50 52 52 49 42 37 35 33 33 32 31 42 63 74 65 65 63 64 65 65 62 67 64 71 82 84 82 81 81 80 84 88 90
64 64 60 60 58 53 51 50 52 54 55 54 49 41 38 39 37 34 36 39 42 67 74 65 60 63 61 61 62 61 60 61 62 87 85 84 81 76 78 79 81 79 82
66 64 63 58 54 53 54 56 58 58 53 46 42 38 40 38 35 36 33 34 38 70 63 65 63 62 61 66 62 59 61 60 61 68 74 69 76 73 72 74 76 77 76
67 64 57 54 55 55 55 53 50 47 48 48 47 44 43 39 38 36 34 33 39 56 52 36 36 36 42 51 52 52 54 54 61 63 67 65 65 65 68 71 71 73 74
61 56 54 56 57 56 54 49 41 42 46 52 50 46 42 42 43 40 37 34 34 33 33 31 31 34 39 49 48 47 46 48 56 56 55 52 52 61 66 65 65 65 75
62 55 58 58 56 55 48 45 49 50 52 51 50 50 48 46 43 44 39 37 35 34 34 33 34 37 36 39 43 44 43 43 49 50 48 49 49 52 55 58 59 61 61
58 58 57 55 49 43 48 51 51 53 54 52 53 62 69 56 47 47 41 40 37 36 34 35 35 33 32 32 34 38 44 46 44 46 48 48 48 49 50 52 54 57 56
54 52 49 42 46 52 55 54 55 55 55 55 57 53 72 77 66 46 48 41 40 38 35 38 38 37 36 34 32 36 38 37 44 53 52 52 52 50 50 50 50 51 53
52 46 44 49 53 53 46 44 46 49 57 62 59 57 57 59 74 80 47 49 44 45 42 43 42 41 40 37 37 41 39 36 40 50 51 52 52 50 50 50 49 49 50
50 45 48 52 45 39 37 37 40 46 54 63 64 63 62 62 64 67 77 56 52 51 52 49 46 46 42 40 41 40 36 40 50 59 56 52 52 52 52 52 50 49 48
50 46 40 37 35 35 36 38 41 46 59 63 63 64 69 71 71 69 78 73 73 68 56 55 54 50 43 42 44 44 42 58 47 58 59 58 56 55 53 52 52 51 51
38 35 34 40 37 37 36 39 43 47 50 65 75 75 74 74 75 76 72 92 97 77 68 62 59 48 45 47 46 48 46 44 45 54 62 62 61 57 55 54 55 54 54
34 36 38 38 38 38 40 42 45 46 57 64 62 63 67 69 73 77 82 93 95 88 77 71 59 51 50 47 47 47 53 54 52 64 65 62 59 58 58 56 56 56 56
37 40 39 38 42 44 42 43 47 53 56 53 54 54 63 79 93 98 99 100 99 99 92 67 53 51 52 52 52 57 59 51 64 65 63 65 65 65 64 64 65 64 63
39 39 42 44 45 44 43 42 47 56 52 53 56 64 70 78 82 86 93 91 80 77 86 59 56 55 55 53 55 59 52 62 54 57 63 72 74 70 70 69 66 65 65
43 50 54 45 44 45 43 44 52 51 54 58 60 70 75 72 70 82 68 54 52 54 62 56 52 54 52 50 49 54 57 59 66 67 77 74 75 69 66 68 69 64 70
55 48 43 44 46 45 45 45 50 55 58 58 63 71 70 65 63 53 51 51 52 49 56 65 62 61 56 54 59 64 68 65 68 69 74 78 69 68 71 67 67 59 59
48 42 44 48 47 46 45 48 53 56 58 61 67 66 61 60 62 52 52 48 50 53 56 64 72 68 63 63 66 73 75 77 67 72 62 62 60 65 79 78 72 73 84
44 42 44 47 47 46 46 53 54 58 61 64 63 59 56 49 47 47 48 51 54 59 66 70 75 79 79 71 78 85 91 79 73 65 57 61 74 66 68 58 62 59 83
43 44 47 48 48 48 46 50 54 60 62 60 56 53 49 51 52 52 52 55 63 66 70 68 82 85 82 80 90 86 83 76 74 73 65 66 78 68 62 64 63 59 61
50 45 45 51 46 46 50 51 58 60 60 57 52 46 53 55 56 56 56 59 60 62 66 74 85 85 84 80 76 74 79 88 85 76 79 82 81 76 72 67 60 66 82
53 50 41 48 51 49 52 54 58 61 61 59 52 53 58 61 61 60 59 60 61 63 44 48 74 82 83 74 90 94 95 98 96 90 96 95 78 80 66 65 59 73 81
57 50 54 52 53 54 55 58 63 64 66 60 58 58 64 66 65 63 63 64 64 69 32 54 81 78 80 93 95 99 97 98 99 88 87 94 85 85 73 75 54 72 73
60 60 56 56 57 56 60 65 67 69 68 65 66 69 68 70 68 65 66 69 76 53 49 60 75 70 74 78 88 95 92 100 90 89 82 92 80 87 89 73 56 64 63
58 57 58 58 55 61 60 62 67 72 88 70 69 68 69 73 72 68 73 79 73 49 61 66 70 71 62 65 66 74 86 100 98 88 76 91 91 98 95 68 66 63 64